Weather in Zibo

China     36°47′43″N   118°03′37″E
temp.,
°C
wind,
m/s
gust,
m/s
humid.,
%
clouds,
%
prec.,
mm/h
press.,
hPa
HPBL,
m
11 may, tue
tue1123:00+14e3872100 0.0 1012406
02:00+14e3966100 0.0 1012429
05:00+13e3872100 0.0 1012370
08:00+15e4759100 0.0 1013588
11:00+21ene344599 0.0 1011956
14:00+24ene333813 0.0 10091298
17:00+24e4343100 0.0 10081265
20:00+20e476487 0.0 1007386
12 may, wed
wed1223:00+19ese127119 0.0 100985
02:00+18sse117322 0.0 100813
05:00+17s1174100 0.0 100820
08:00+21n22587 0.0 1010420
11:00+26n22381 0.0 10101307
14:00+29ene22270 0.0 10071846
17:00+30e332760 0.0 10061776
20:00+24e495478 0.0 1007387
13 may, thu
thu1323:00+23sse3663100 0.0 1008337
02:00+21sse2570100 0.0 1008256
05:00+20sse2576100 0.0 1008255
08:00+23s2460100 0.0 1009465
11:00+29ssw22375 0.0 10081500
14:00+32se12255 0.0 10062402
17:00+32sse33260 0.0 10042521
20:00+26sse58470 0.0 1006530
14 may, fri
fri1423:00+24s37550 0.0 1007377
02:00+22sse25670 0.0 1006270
05:00+20sse25690 0.0 1006219
08:00+24sse2352100 0.0 1006461
11:00+29s3436100 0.0 10051292
14:00+30sse4540100 0.0 10031846
17:00+29sse5546100 0.0 10021620
20:00+25sse3660100 0.1 1003548
15 may, sat
sat1523:00+23sse2576100 0.9 1003426
02:00+22e1286100 2.6 1002280
05:00+21e1288100 0.8 1002191
08:00+21ne2288100 1.2 1003276
11:00+24ne3476100 0.1 1003781
14:00+23ene5673100 0.1 1003808
17:00+17ne7985100 0.1 1005628
20:00+14ene51079100 0.1 1008655